Time,TemperatureF,DewpointF,PressureIn,WindDirection,WindDirectionDegrees,WindSpeedMPH,WindSpeedGustMPH,Humidity,HourlyPrecipIn,Conditions,Clouds,dailyrainin,SoftwareType,DateUTC
2014-03-23 00:02:00,-999.0,-99.9,-100.00,North,350,4.0,7.0,-999,-99.99,,,-99.99,,2014-03-23 04:02:00,
2014-03-23 00:43:00,43.0,26.0,-100.00,North,350,4.0,7.0,50,-99.99,,,-99.99,,2014-03-23 04:43:00,
2014-03-23 01:43:00,42.0,26.0,-100.00,NW,320,4.0,4.0,53,-99.99,,,-99.99,,2014-03-23 05:43:00,
2014-03-23 02:41:00,40.0,27.0,-100.00,West,280,4.0,9.0,58,-99.99,,,-99.99,,2014-03-23 06:41:00,
2014-03-23 03:41:00,40.0,26.0,-100.00,NW,320,11.0,16.0,58,-99.99,,,-99.99,,2014-03-23 07:41:00,
2014-03-23 05:43:00,39.0,26.0,-100.00,WNW,290,11.0,16.0,59,-99.99,,,-99.99,,2014-03-23 09:43:00,
2014-03-23 06:42:00,38.0,25.0,-100.00,NW,310,13.0,18.0,58,-99.99,,,-99.99,,2014-03-23 10:42:00,
2014-03-23 07:42:00,38.0,25.0,-100.00,WNW,300,9.0,13.0,59,-99.99,,,-99.99,,2014-03-23 11:42:00,
2014-03-23 08:42:00,38.0,24.0,-100.00,WNW,300,7.0,9.0,57,-99.99,,,-99.99,,2014-03-23 12:42:00,
2014-03-23 09:12:00,38.0,25.0,-100.00,WNW,300,4.0,7.0,60,-99.99,,,-99.99,,2014-03-23 13:12:00,
2014-03-23 09:42:00,38.0,25.0,-100.00,West,260,2.0,4.0,60,-99.99,,,-99.99,,2014-03-23 13:42:00,
2014-03-23 10:42:00,37.0,27.0,-100.00,WSW,250,4.0,7.0,66,-99.99,,,-99.99,,2014-03-23 14:42:00,
2014-03-23 11:11:00,38.0,26.0,-100.00,WNW,290,9.0,11.0,61,-99.99,,,-99.99,,2014-03-23 15:11:00,
2014-03-23 11:43:00,38.0,25.0,-100.00,WNW,300,11.0,16.0,57,-99.99,,,-99.99,,2014-03-23 15:43:00,
2014-03-23 13:12:00,39.0,22.0,-100.00,WNW,290,16.0,22.0,50,-99.99,,,-99.99,,2014-03-23 17:12:00,
2014-03-23 13:42:00,38.0,20.0,-100.00,WNW,300,16.0,20.0,47,-99.99,,,-99.99,,2014-03-23 17:42:00,
2014-03-23 14:42:00,38.0,18.0,-100.00,WNW,300,11.0,16.0,43,-99.99,,,-99.99,,2014-03-23 18:42:00,
2014-03-23 15:11:00,38.0,16.0,-100.00,NW,310,16.0,20.0,40,-99.99,,,-99.99,,2014-03-23 19:11:00,
2014-03-23 15:42:00,38.0,15.0,-100.00,WNW,300,16.0,20.0,38,-99.99,,,-99.99,,2014-03-23 19:42:00,
2014-03-23 16:42:00,38.0,17.0,-100.00,WNW,290,16.0,22.0,42,-99.99,,,-99.99,,2014-03-23 20:42:00,
2014-03-23 17:43:00,38.0,17.0,-100.00,WNW,300,16.0,18.0,42,-99.99,,,-99.99,,2014-03-23 21:43:00,
2014-03-23 18:43:00,37.0,17.0,-100.00,WNW,300,18.0,20.0,42,-99.99,,,-99.99,,2014-03-23 22:43:00,
2014-03-23 19:11:00,37.0,18.0,-100.00,WNW,300,16.0,20.0,44,-99.99,,,-99.99,,2014-03-23 23:11:00,
2014-03-23 19:42:00,37.0,16.0,-100.00,NW,320,18.0,22.0,42,-99.99,,,-99.99,,2014-03-23 23:42:00,
2014-03-23 21:42:00,35.0,14.0,-100.00,NW,320,18.0,22.0,40,-99.99,,,-99.99,,2014-03-24 01:42:00,
2014-03-23 22:41:00,33.0,13.0,-100.00,NNW,330,18.0,25.0,41,-99.99,,,-99.99,,2014-03-24 02:41:00,
2014-03-23 23:43:00,31.0,11.0,-100.00,NNW,340,20.0,25.0,41,-99.99,,,-99.99,,2014-03-24 03:43:00,